Regional Weather Roundup
Issued by NWS Pendleton, OR

Home | Current Version | Previous Version | Text Only | Print | Product List | Glossary On
Versions: 1 2 3 4 5 6 7 8 9 10 11 12 13 14 15 16 17 18 19 20 21 22 23 24 25 26 27 28 29 30 31 32 33 34 35 36 37 38 39 40 41 42 43 44 45 46 47 48 49 50
499
ASUS46 KPDT 211810
RWRPDT
PENDLETON REGIONAL WEATHER ROUNDUP
NATIONAL WEATHER SERVICE PENDLETON OREGON
1000 AM PST SAT JAN 21 2017

NOTE: FAIR INDICATES FEW OR NO CLOUDS BELOW 12,000 FEET WITH NO
SIGNIFICANT WEATHER AND/OR OBSTRUCTIONS TO VISIBILITY.

# INDICATES UNOFFICIAL STATION AND DATA

WAZ520-211910-
EAST SLOPES OF WASHINGTON CASCADES

CITY            SKY/WX      TMP DP  RH  WIND    PRES   REMARKS
#CLE ELUM HS    N/A         37  33  85  CALM    29.40R
#CLE ELUM LAKE  N/A         32  32  100 CALM    29.45R
#GLENWOOD       N/A         34  33  96  CALM    29.45R
#NELSON 3SW     N/A         32  31  96  CALM    29.66R
#NILE           N/A         33  32  96  CALM    28.71R
#TEANAWAY 4NE   N/A         34  34  100 CALM    N/A
#TROUT LAKE 1NE N/A         34  33  96  CALM    29.45R
#TROUT LAKE 1E  N/A         33  32  96  CALM    29.41R
$$

WAZ521-211910-
SIMCOE HIGHLANDS

CITY            SKY/WX      TMP DP  RH  WIND    PRES   REMARKS
#BICKLETON HS   N/A         30  30  100 W2      29.06R
#CENTERVILLE 1SWN/A         30  28  92  CALM    29.43R
#GOLDENDALE 1NE N/A         36  33  89  E6      N/A
#GOLDENDALE 4W  N/A         37  15  40  CALM    29.46R
#GOODNOE HILLS  N/A         38  35  89  NE2     N/A
#LYLE 6NE       N/A         33  32  96  CALM    29.42R
#PITT 4SE       N/A         31  30  96  E3      29.48R
$$

WAZ026-211910-
KITTITAS VALLEY

CITY            SKY/WX      TMP DP  RH  WIND    PRES   REMARKS
ELLENSBURG AP   LGT RAIN    37  33  85  NE3     29.42R
#ELLENSBURG CWU N/A         34  33  96  NE1     29.41R
#ELLENSBURG 3NE N/A         33  32  96  NE2     27.53R
#ELLENSBURG 1E  N/A         33  N/A N/A CALM    N/A
#KITTITAS 4N    N/A         35  33  92  CALM    29.48R
#KITTITAS 3S    N/A         33  32  96  CALM    29.46R
#THORP 6N       N/A         32  31  96  E6      29.49R
$$

WAZ027-211910-
YAKIMA VALLEY

CITY            SKY/WX      TMP DP  RH  WIND    PRES   REMARKS
SUNNYSIDE AP    MOCLDY      30  29  96  CALM    29.46R FOG
6HR MIN TEMP:   26; 6HR MAX TEMP:   31;

YAKIMA AIRPORT  CLOUDY      37  35  92  CALM    29.45R FOG
6HR MIN TEMP:   35; 6HR MAX TEMP:   37;

YAKIMA-VAGABOND MOCLDY      34  33  96  E3      29.42R FOG
6HR MIN TEMP:   32; 6HR MAX TEMP:   34;

#DONALD 2NE     N/A         49  24  37  CALM    28.31R
#MABTON         N/A         30  29  96  CALM    29.46R
#NACHES 2SW     N/A         36  35  96  CALM    29.40R
#TERRACE HTS    N/A         35  34  96  CALM    29.46R
#TOPPENISH      N/A         29  28  96  CALM    29.42R
#W YAKIMA       N/A         34  34  100 CALM    29.49R
#WHITE SWAN 5E  N/A         33  32  96  CALM    29.49R
#WILEY CITY 3W  N/A         36  32  85  CALM    29.40R
$$

WAZ028-211910-
LOWER COLUMBIA BASIN...WASHINGTON

CITY            SKY/WX      TMP DP  RH  WIND    PRES   REMARKS
PASCO           PTCLDY      29  27  92  CALM    29.49R FOG
6HR MIN TEMP:   23; 6HR MAX TEMP:   30;

PROSSER AWOS    N/A         28  28  100 SW3     29.50R
RICHLAND AWOS   PTCLDY      34  32  92  E3      29.48R FOG
#BENTON CITY    N/A         34  32  92  CALM    29.39R
#CONNELL 5N     N/A         35  33  92  CALM    29.48R
#CONNELL 5NW    N/A         35  34  96  CALM    29.44R
#ELTOPIA 6NW    N/A         32  31  96  CALM    28.44R
#KAHLOTUS       N/A         34  31  89  CALM    29.48R
#KENNEWICK 3S   N/A         40  36  85  CALM    29.49R
#PATERSON       N/A         35  33  92  CALM    29.48R
#SAGEMOOR 2W    N/A         34  32  92  CALM    29.33R
#TOUCHET 2S     N/A         27  26  96  CALM    29.47R
#WEST PASCO     N/A         33  31  92  E1      29.41R
$$

WAZ029-211910-
FOOTHILLS OF THE BLUES...WASHINGTON

CITY            SKY/WX      TMP DP  RH  WIND    PRES   REMARKS
WALLA WALLA AP  PTCLDY      39  32  76  CALM    29.44R
6HR MIN TEMP:   30; 6HR MAX TEMP:   39;

#CLYDE 6NW      N/A         36  33  89  CALM    29.48R
#DAYTON SCHOOL  N/A         39  29  67  CALM    29.48R
#LOWDEN 2SE     N/A         28  27  96  CALM    29.44R
#PLEASANT VIEW 1N/A         38  33  82  CALM    29.51R
#PRESCOTT       N/A         36  33  89  CALM    29.47R
#WHITMAN COLLEGEN/A         40  34  79  CALM    29.53R
#WAITSBURG 5S   N/A         41  35  79  CALM    29.55R
#WAITSBURG 8N   N/A         51  N/A N/A N2      29.29R
#WALLA WALLA 5E N/A         39  37  92  CALM    N/A
#WALLA WALLA U  N/A         39  35  85  CALM    29.48R
#WHITMAN MISSIONN/A         33  32  96  CALM    29.51R
$$

WAZ030-211910-
BLUE MOUNTAINS...WASHINGTON

CITY            SKY/WX      TMP DP  RH  WIND    PRES   REMARKS
#DIXIE 5SE      N/A         41  27  57  SE8     29.32R
#SKI BLUEWOOD   N/A         35  28  75  S3      29.38R
$$

ORZ009-041-WAZ024-211910-
COLUMBIA RIVER GORGE

CITY            SKY/WX      TMP DP  RH  WIND    PRES   REMARKS
HOOD RIVER AP   CLOUDY      34  34  100 CALM    29.45R FOG
THE DALLES AP   MOCLDY      33  32  96  CALM    29.47R FOG
#ARLINGTON AIRPON/A         34  32  92  CALM    29.50R
#ARLINGTON HS   N/A         36  32  85  CALM    29.40R
#CELILO DOT     N/A         35  32  89  S8      N/A
#LYLE           N/A         37  36  96  S2      29.48R
#MOSIER 1S      N/A         35  33  92  CALM    29.44R
#MURDOCK        N/A         36  34  92  CALM    29.45R
#RUFUS DOT      N/A         32  29  89  S8      N/A
#SMITHVILLE     N/A         35  34  96  N1      29.47R

$$

ORZ510-211910-
NORTH CENTRAL OREGON

CITY            SKY/WX      TMP DP  RH  WIND    PRES   REMARKS
#ANTELOPE       N/A         35  31  85  CALM    29.33R
#CHENOWITH 1W   N/A         32  31  96  E6      N/A
#COW CYN RST AREN/A         37  N/A N/A S2      N/A
#DUFUR 9E       N/A         32  31  96  SE1     29.51R
#GRASS VALLEY 1SN/A         32  31  96  CALM    29.37R
#KENT DOT       N/A         33  26  75  N3      N/A
#MAUPIN SCHOOL  N/A         35  33  92  CALM    29.50R
#SHANIKO 5WSW   N/A         34  22  61  N15     N/A    WCI 24
#SHANIKO 4NW    N/A         33  26  75  S18     29.34R WCI 22
#TYGH VALLEY 2NEN/A         34  32  92  CALM    29.47R
#WAPANITIA AIRPON/A         31  30  96  CALM    29.49R
#WASCO DOT      N/A         32  29  89  E3      N/A
#WASCO AIRPORT  N/A         27  25  92  SE3     N/A
#WASCO 5NE      N/A         27  25  92  N2      29.47R
$$

ORZ511-211910-
CENTRAL OREGON

CITY            SKY/WX      TMP DP  RH  WIND    PRES   REMARKS
BEND AIRPORT    CLOUDY      34  27  75  CALM    29.39R
MADRAS AIRPORT  FRZFOG      28  28  100 CALM    29.42R VSB 1/4
PRINEVILLE AP   MOCLDY      36  27  69  S13     29.40R WCI 27
REDMOND AIRPORT CLOUDY      34  24  66  SE5     29.39R
6HR MIN TEMP:   28; 6HR MAX TEMP:   34; 6HR PCP:  TRACE;

#ASHWOOD SCHOOL N/A         34  32  92  CALM    29.39R
#BEND 1SW       N/A         33  31  92  W3      N/A
#BEND-AWBREY    N/A         34  32  92  SW3     29.45R
#BEND-KIM LN    N/A         34  32  92  E2      29.39R
#CULVER         N/A         33  32  96  SE12G25 29.39R WCI 24
#CULVER 8W      N/A         32  28  85  CALM    29.46R
#MADRAS 4S      N/A         29  26  88  CALM    29.52R
#POWELL BUTTE   N/A         36  23  59  S2      29.42R
#PRINEVILLE 3N  N/A         36  29  75  SE3     29.48R
#WARM SPRINGS   N/A         32  31  96  CALM    29.41R

$$


ORZ509-211910-
EAST SLOPES OF OREGON CASCADES

CITY            SKY/WX      TMP DP  RH  WIND    PRES   REMARKS
SISTERS AWOS    N/A         30  30  100 CALM    29.40R
#BLUE BOX PASS  N/A         31  N/A N/A S2      N/A
#CAMP SHERMAN   N/A         32  30  92  CALM    29.49R
#LA PINE DOT    N/A         N/A N/A N/A SE3     N/A
#LA PINE 4NW    N/A         30  27  88  CALM    29.50R
#LAVA BUTTE DOT N/A         31  27  85  S3      N/A
#SISTERS ODOT   N/A         N/A N/A N/A CALM    N/A
#SISTERS 3N     N/A         32  29  89  CALM    29.43R
#SUNRIVER       N/A         32  30  92  SW1     29.49R
#TUMALO 3W      N/A         33  30  89  S7      29.31S
#WANOGA BUTTE D N/A         24  24  100 CALM    N/A

$$

ORZ044-211910-
LOWER COLUMBIA BASIN...OREGON

CITY            SKY/WX      TMP DP  RH  WIND    PRES   REMARKS
HERMISTON       PTCLDY      32  32  100 CALM    29.46R FOG
#BOARDMAN SCHOOLN/A         34  31  89  CALM    29.48R
#BOARDMAN 8SW   N/A         35  33  92  CALM    29.48R
#ECHO 8SW       N/A         30  30  100 SW1     29.48R
#I-84 EX 198 DOTN/A         36  36  100 S2      N/A
#UMATILLA       N/A         32  29  89  CALM    29.42R
$$

ORZ507-211910-
NORTHERN FOOTHILLS OF THE BLUES

CITY            SKY/WX      TMP DP  RH  WIND    PRES   REMARKS
PENDLETON AIRPT PTCLDY      33  32  96  SE3     29.43R FOG
6HR MIN TEMP:   31; 6HR MAX TEMP:   34;

#ADAMS 3WNW     N/A         35  32  89  CALM    29.45R
#ATHENA         N/A         40  35  82  S1      29.47R
#CAYUSE         N/A         34  31  89  E2      29.44R
#HELIX SCHOOL   N/A         36  33  89  CALM    29.47R
#HELIX 3N       N/A         39  32  76  N7      29.42R
#HOLDMAN 5SE    N/A         37  35  92  CALM    29.44R
#HOLDMAN 6E     N/A         38  34  85  CALM    29.27R
#M-F GROVE ELEM N/A         35  32  89  CALM    29.42R
#PENDLETON DNTN N/A         35  29  78  CALM    29.45R
#PDT AQUATIC CTRN/A         34  32  92  CALM    29.45R
#PDT SUNRIDGE   N/A         34  31  89  CALM    29.45R
#PENDLETON 7NW  N/A         37  32  82  E3      32.00S
#PILOT ROCK     N/A         34  30  85  N1      29.48R
#TUTUILLA       N/A         33  30  89  CALM    29.46R
#WESTON SCHOOL  N/A         44  28  53  SW1     29.36R

$$

ORZ508-211910-
SOUTHERN FOOTHILLS OF THE BLUES

CITY            SKY/WX      TMP DP  RH  WIND    PRES   REMARKS
#AJAX           N/A         30  24  78  CALM    27.21R
#CONDON SCHOOL  N/A         38  31  76  S2      29.38R
#CONDON 5W      N/A         34  27  75  SE12    29.34R WCI 25
#FOSSIL SCHOOL  N/A         41  30  65  CALM    29.38R
#HEPPNER EOC    N/A         45  31  58  SE7     29.37R
#HEPPNER 4NE    N/A         43  30  60  E2      29.44R
#LEXINGTON 2SE  N/A         36  33  89  CALM    29.39R
#MIKKALO        N/A         29  26  88  SE1     29.54R
#OLEX 4N        N/A         30  28  92  CALM    29.44R
#RUGGS 5NE      N/A         42  27  55  SE6     29.52S
#RUGGS 2SW      N/A         40  28  62  S12     29.45R WCI 33

$$

ORZ502-503-211910-
BLUE MOUNTAINS

CITY            SKY/WX      TMP DP  RH  WIND    PRES   REMARKS
MEACHAM         CLOUDY      34  24  66  CALM    29.40R
6HR MIN TEMP:   27; 6HR MAX TEMP:   34;

#BATTLE MTN DOT N/A         31  24  75  S8      N/A
#GREENHORN 9SW  N/A         32  30  92  E1      25.69R
#HEPPNER 15SE   N/A         34  27  75  SE3     N/A
#LADD CYN SMT   N/A         31  28  88  SE14    N/A    WCI 21
#LADD CREEK ODOTN/A         34  30  85  SW3     N/A
#LONG CREEK HS  N/A         38  32  79  SW7     N/A
#N POWDER DOT   N/A         34  29  82  CALM    N/A
#PIKES PEAK     N/A         40  24  52  W15     27.99S WCI 32
#TOLLGATE       N/A         28  26  92  SW1     29.34R
#TROY SCHOOL    N/A         34  31  89  CALM    29.41R
#UKIAH          N/A         26  23  88  CALM    29.42R
#WESTON 4E      N/A         36  29  75  E13     29.42R WCI 27
$$

ORZ505-211910-
JOHN DAY BASIN

CITY            SKY/WX      TMP DP  RH  WIND    PRES   REMARKS
JOHN DAY        CLOUDY      37  28  70  S18     29.45R WCI 27
#ANTELOPE 9ESE  N/A         30  29  96  CALM    N/A
#DAYVILLE SCHOOLN/A         38  26  62  E6      29.46R
#MITCHELL       N/A         39  29  67  E2G25   29.61R
#MITCHELL 8NW   N/A         37  26  64  SE3     29.27R
#MONUMENT HS    N/A         34  26  72  CALM    29.42R
#MT. VERNON 5SE N/A         34  27  75  E9      29.39R
#SPRAY SCHOOL   N/A         37  N/A N/A CALM    N/A
$$

ORZ506-211910-
OCHOCO AND JOHN DAY HIGHLANDS

CITY            SKY/WX      TMP DP  RH  WIND    PRES   REMARKS
#HORSE RIDGE DO N/A         34  25  69  SE16    N/A    WCI 24
#PAULINA SCHOOL N/A         29  22  75  SW1     N/A
#PINE MTN OBS   N/A         24  23  96  CALM    N/A
#PRAIRIE CITY   N/A         34  26  72  CALM    29.60
#SENECA         N/A         29  N/A N/A S9      N/A
#SENECA 9NW     N/A         24  23  96  CALM    29.59R
$$

ORZ049-211910-
GRANDE RONDE VALLEY

CITY            SKY/WX      TMP DP  RH  WIND    PRES   REMARKS
LA GRANDE       MOCLDY      36  28  72  S16     29.45R WCI 26
#COVE           N/A         36  32  85  CALM    29.52R
#COVE 6NW       N/A         36  32  85  SE3     29.52R
#ELGIN 3N       N/A         33  27  78  NE3     29.49R
#IMBLER SCHOOL  N/A         34  30  85  SE7     29.47R
#ISLAND CITY 4N N/A         42  41  96  CALM    29.36R
#LADD CYN DOT   N/A         35  30  82  SE16    N/A    WCI 25
#UNION 1S       N/A         36  31  82  S15     29.53R WCI 27
$$

ORZ050-211910-
WALLOWA COUNTY

CITY            SKY/WX      TMP DP  RH  WIND    PRES   REMARKS
JOSEPH AIRPORT  PTCLDY      27  25  92  CALM    29.45R
#IMNAHA SCHOOL  N/A         31  30  96  N3      29.51R
#IMNAHA 10S     N/A         38  29  70  CALM    29.49R
#JOSEPH 3N      N/A         19  14  80  CALM    29.52R
#JOSEPH 3W      N/A         34  28  78  CALM    29.34R
#LOSTINE        N/A         27  24  88  CALM    29.41R
#LOSTINE 3SE    N/A         25  22  88  S2      29.50R
#MT HOWARD 8000 N/A         18  15  88  S7      29.31R
#PROMISE 1S     N/A         31  28  88  CALM    29.63R
#WALLOWA SCHOOL N/A         27  24  88  CALM    29.49R



$$



USA.gov is the U.S. government's official web portal to all federal, state and local government web resources and services.